Regional Weather Roundup
Issued by NWS

Home | Current Version | Previous Version | Graphics & Text | Print | Product List | Glossary On
Versions: 1 2 3 4 5 6 7 8 9 10 11 12 13 14 15 16 17 18 19 20 21 22 23 24 25 26 27 28
000
ASUS45 KTFX 210010
RWRMT
MONTANA REGIONAL WEATHER ROUNDUP
NATIONAL WEATHER SERVICE GREAT FALLS MT
500 PM MST FRI JAN 20 2017

NOTE: "FAIR" INDICATES FEW OR NO CLOUDS BELOW 12000 FEET WITH NO
SIGNIFICANT WEATHER AND/OR OBSTRUCTIONS TO VISIBILITY.

MTZ001>007-043-210100-
WEST OF THE DIVIDE

CITY           SKY/WX    TMP DP  RH WIND       PRES   REMARKS
KALISPELL      CLEAR     32  27  81 CALM      29.32F
MISSOULA       PTCLDY    32  28  85 N5        29.33F
BUTTE          CLEAR     28  15  58 S10       29.35R WCI  19
MULLAN PASS    PTCLDY    26  22  84 SE6       29.24S WCI  19
ANACONDA         N/A     30  18  59 E9        29.33R WCI  22
DEER LODGE       N/A     30  18  59 SW5       29.36S
EUREKA           N/A     39  28  65 CALM      29.33F
HAMILTON         N/A     28  27  93 E5        29.32S
PLAINS           N/A     32  28  85 CALM      29.37F
RONAN            N/A     26  22  85 W3        29.42F
$$

MTZ008-052>055-210100-
SOUTHWEST MONTANA

CITY           SKY/WX    TMP DP  RH WIND       PRES   REMARKS
BOZEMAN        CLEAR     29  22  75 S3        29.37F
DILLON         CLEAR     35  16  45 NE3       29.34F
ENNIS          CLEAR     28  19  69 S21       29.41R WCI  15
TWIN BRIDGES     N/A     25  12  57 CALM      29.44S
$$

MTZ009-010-012-014-046-048-049-054-210100-
EAST SLOPES AND CENTRAL MONTANA

CITY           SKY/WX    TMP DP  RH WIND       PRES   REMARKS
CUT BANK       CLEAR     33  22  63 SE6       29.32S WCI  28
GREAT FALLS    CLEAR     36  22  56 S5        29.35R
MALMSTROM AFB  CLEAR     35  25  67 S9        29.36R WCI  28
HELENA         CLEAR     29  23  78 NW3       29.36S
CHOTEAU          N/A     36  27  69 S10       29.35S WCI  28
CONRAD           N/A     33  26  76 SE5       29.42S
$$

MTZ011-013-016-021-045-047-050-051-210100-
NORTH CENTRAL MONTANA

CITY           SKY/WX    TMP DP  RH WIND       PRES   REMARKS
HAVRE          CLEAR     37  30  75 CALM      29.37S
LEWISTOWN      CLEAR     38  22  52 CALM      29.37R
CHINOOK          N/A     39  28  65 W3        29.37S
FORT BENTON      N/A     45  25  45 MISG      29.37S
$$

MTZ017>020-022>027-061-062-210100-
NORTHEAST MONTANA

CITY           SKY/WX    TMP DP  RH WIND       PRES   REMARKS
GLASGOW        CLOUDY    33  29  85 S6        29.37R WCI  28
JORDAN           N/A     36  31  82 CALM      29.38R
SIDNEY         CLOUDY    34  29  82 SW5       29.34F
WOLF POINT     CLOUDY    34  28  79 W10       29.37S WCI  26
PLENTYWOOD       N/A     30  25  80 N6        29.33R WCI  24
POPLAR           N/A     32  28  86 W10       29.37S WCI  24
SCOBEY           N/A     31  22  69 CALM      29.36F
$$

MTZ028>42-056>058-210100-
SOUTHCENTRAL AND SOUTHEAST MONTANA

CITY           SKY/WX    TMP DP  RH WIND       PRES   REMARKS
BAKER          CLOUDY    31  29  92 W12       29.37R WCI  22
BILLINGS       PTCLDY    37  27  67 SW8       29.39S WCI  31
LIVINGSTON     CLEAR     37  15  40 SW15      29.36R WCI  28
MILES CITY     CLOUDY    36  31  82 W7        29.38F WCI  30
BIG TIMBER     CLEAR     37  16  41 W9        29.39R WCI  31
FORSYTH          N/A     37  37 100 CALM      29.39S
LAUREL           N/A     36  23  59 SW1       29.44R
$$

REGIONAL REPORTS...DAKOTAS

CITY           SKY/WX    TMP DP  RH WIND       PRES   REMARKS
WILLISTON      CLOUDY    29  25  85 SW5       29.34S
MINOT          CLOUDY    28  26  92 S8        29.35S WCI  20
DICKINSON      CLOUDY    31  27  85 NW7       29.31R WCI  24
BEACH          MOCLDY    32  28  86 W7        29.37S WCI  26
CROSBY           N/A     27  27 100 W5        29.35R
TIOGA            N/A     25  25 100 CALM      29.34S
WATFORD CITY     N/A     28  27  93 W5        29.34S
BISMARCK       CLOUDY    31  30  96 W3        29.36R FOG
GRAND FORKS    CLOUDY    36  33  89 SE8       29.45S WCI  30
FARGO          CLOUDY    39  35  86 SE13      29.44R WCI  31
BUFFALO SD       N/A     36  31  82 NW20      29.27S WCI  25
RAPID CITY     CLEAR     37  28  70 NW15      29.32R WCI  28
$$

REGIONAL REPORTS...WYOMING/IDAHO/WASHINGTON

CITY           SKY/WX    TMP DP  RH WIND       PRES   REMARKS
GILLETTE       CLOUDY    33  32  96 NW8       29.39S WCI  26
SHERIDAN       CLOUDY    34  29  82 SW9       29.40R WCI  27
BUFFALO WY     CLOUDY    34  29  82 CALM      29.40S
CODY           CLEAR     24  21  88 NE7       29.39S WCI  16
YELLOWSTONE LA   N/A     20  15  81 CALM      29.41R
IDAHO FALLS    PTCLDY    22  22 100 VRB5      29.41F
SALMON         CLOUDY    19  18  93 SE3       29.37F
BOISE          CLOUDY    39  27  62 SE14      29.25S WCI  31
SPOKANE        MOCLDY    41  30  65 E6        29.24S
$$

REGIONAL REPORTS...ALBERTA

CITY           SKY/WX    TMP DP  RH WIND       PRES   REMARKS
EDMONTON       CLEAR     34  16  47 S6        29.31S WCI  29
CALGARY        PTCLDY    36  19  51 SE6       29.29S WCI  31
LETHBRIDGE     PTCLDY    34  27  75 S9        29.31S WCI  26
MEDICINE HAT   PTCLDY    37  25  60 S7        29.32S
WATERTON GATE    N/A     30  19  64 SW6         N/A  WCI  24
CARDSTON         N/A     37  23  56 E2          N/A
MILK RIVER       N/A     34  27  75 S3          N/A
$$

REGIONAL REPORTS...SASKATCHEWAN

CITY           SKY/WX    TMP DP  RH WIND       PRES   REMARKS
SWIFT CURRENT  CLOUDY    37  27  65 W10       29.29F WCI  30
REGINA         MOCLDY    25  21  86 S2        29.31S
SASKATOON      MOCLDY    30  28  93 NW5       29.33S
CYPRESS HILLS    N/A     30  21  69 SW5         N/A
VAL MARIE        N/A     36  27  69 W5          N/A
$$




USA.gov is the U.S. government's official web portal to all federal, state and local government web resources and services.